Tracking 19909 objects as of 21-Oct-2019
HD Live streaming from Space Station
objects crossing your sky now

COSMOS 1375 DEB

Track COSMOS 1375 DEB now!
10-day predictions


NORAD ID: 16376
Int'l Code: 1982-055Q
Perigee: 904.9 km
Apogee: 947.1 km
Inclination: 65.8 °
Period: 103.4 minutes
Semi major axis: 7297 km
RCS: 0.0298 m2 (small)
Launch date: June 6, 1982
Source: Commonwealth of Independent States (former USSR) (CIS)
Launch site: PLESETSK MISSILE AND SPACE COMPLEX (PKMTR)

Note: This is SATELLITE DEBRIS
aabbcc
Your satellite tracking list
Your tracking list is empty




NASA's NSSDC Master Catalog

Two Line Element Set (TLE):
1 16376U 82055Q   19293.69724630  .00000138  00000-0  17123-3 0  9993
2 16376  65.8303  30.6189 0028918 224.2623 209.3404 13.92782134721356
Source of the keplerian elements: AFSPC